Tracking 20626 objects as of 8-Apr-2020
HD Live streaming from Space Station
objects crossing your sky now

METEOR 2-17 DEB

Track METEOR 2-17 DEB now!
10-day predictions


NORAD ID: 29300
Int'l Code: 1988-005P
Perigee: 903.4 km
Apogee: 943.4 km
Inclination: 82.5 °
Period: 103.3 minutes
Semi major axis: 7294 km
RCS: 0.0063 m2 (small)
Launch date: January 30, 1988
Source: Commonwealth of Independent States (former USSR) (CIS)
Launch site: PLESETSK MISSILE AND SPACE COMPLEX (PKMTR)

Note: This is SATELLITE DEBRIS
aabbcc
Your satellite tracking list
Your tracking list is empty




NASA's NSSDC Master Catalog

Two Line Element Set (TLE):
1 29300U 88005P   20098.90259443 +.00000182 +00000-0 +12689-3 0  9990
2 29300 082.5388 299.3541 0027440 332.9960 026.9776 13.93537867703168
Source of the keplerian elements: AFSPC